Location: Chippewa Lake
(41.0698°N, 81.9010°W)
Time: 02:10:24
(UTC+00:00)

Cosmos 2233 Rocket - Pass Details

Date: 09 May 2021
Orbit: 952 x 991 km, 82.9° (Epoch: 24 June)

Event Time Altitude Azimuth Distance (km) Brightness Sun altitude
Rises 08:11:10 0° 354° (N) 3,678 7.6 -19.8°
Reaches altitude 10° 08:13:43 10° 357° (N) 2,721 6.9 -19.5°
Maximum altitude 08:19:56 71° 82° (E) 1,016 4.2 -18.7°
Drops below altitude 10° 08:26:02 10° 166° (SSE) 2,679 6.0 -17.9°
Enters shadow 08:27:36 - 167° (SSE) 3,264 6.4 -17.7°
